Wind_Speed
34 33 32 31 29 29 30 30 29 27 26 25 24 23 24 24 24 24 23 24 25 26 27 27 27 26 25 24 24 23 20 16 12 11 16 23 27 22 15 12 13 17 15 12 14 12 9 7 8 8 8 5 1 1 2 1 0 2 2 3 3 3 3 4 6 4 1 5 8 7 9 7 7 5 2 3 3 3 3 3 2 2 3 0 2 2 9 15
34 33 31 31 30 29 28 28 28 27 26 25 24 23 23 23 23 23 22 23 25 26 27 28 29 26 23 23 23 21 16 14 10 14 29 29 22 21 20 19 14 14 15 14 17 15 11 9 8 8 5 3 1 1 2 1 1 1 2 2 3 3 2 1 4 3 0 4 9 8 6 4 4 6 4 4 5 4 5 5 4 4 5 4 1 5 12 14
34 32 31 31 29 28 28 27 28 28 27 26 25 24 23 23 23 23 23 24 25 24 26 27 26 24 22 22 20 16 14 11 6 16 31 28 23 22 19 20 18 16 17 17 19 17 13 10 10 9 4 2 1 2 3 0 1 0 2 4 2 2 2 1 2 3 1 2 9 8 4 2 2 4 4 4 3 4 7 5 6 7 8 8 6 9 14 15
34 32 31 31 29 28 28 27 29 28 27 26 26 25 24 23 24 24 24 24 23 21 24 26 24 23 22 20 18 17 14 6 5 14 20 19 23 25 21 19 18 17 19 19 18 17 13 12 9 6 4 4 1 2 3 2 1 1 1 1 3 2 2 2 1 2 1 1 5 8 6 4 3 2 4 4 4 5 7 6 6 6 7 10 9 12 16 17
35 33 31 31 32 31 30 29 29 28 26 26 26 25 24 24 24 24 24 23 23 21 22 24 24 23 22 21 19 21 14 3 6 11 13 14 21 25 23 18 17 18 19 18 14 13 12 11 8 3 3 5 4 4 2 2 0 2 1 2 3 1 1 3 1 2 1 0 4 8 7 6 5 3 3 5 6 2 1 1 3 3 2 9 11 14 17 18
36 34 32 31 34 34 32 30 29 28 25 25 27 25 25 24 23 23 22 23 23 21 20 22 23 22 23 22 23 22 12 3 3 7 12 16 21 25 23 17 18 19 19 17 12 12 11 10 9 6 3 3 5 6 3 1 2 2 2 2 2 1 1 2 1 2 2 3 7 6 5 6 6 4 1 6 8 1 4 3 2 1 1 8 13 15 17 18
35 33 32 31 34 34 32 30 28 26 24 25 26 25 24 23 22 22 21 22 22 21 21 20 22 23 24 23 22 15 8 4 3 4 9 15 23 24 21 18 18 20 19 16 12 11 9 10 11 6 4 3 3 4 5 3 1 1 3 3 2 2 2 1 0 1 2 3 4 3 4 5 6 4 2 6 8 3 3 2 3 1 3 8 12 14 16 18
35 33 32 32 33 32 31 29 26 26 26 25 25 24 24 23 22 21 21 21 21 22 21 20 22 23 26 24 16 7 6 6 4 3 6 13 21 22 19 18 19 20 19 18 16 12 9 12 12 5 4 4 2 4 5 5 1 1 4 4 2 2 3 2 1 2 1 1 2 3 4 2 1 2 1 6 5 2 1 3 2 3 6 8 10 12 14 16
35 34 33 33 33 31 30 28 27 28 27 24 24 24 23 22 22 21 20 20 20 21 19 21 22 24 26 19 9 5 8 9 5 2 6 14 19 18 19 18 19 21 18 19 18 13 9 9 11 6 4 2 3 5 4 5 3 3 5 5 4 3 3 2 3 3 1 2 1 4 5 3 2 1 4 3 2 2 2 1 1 3 7 7 8 11 13 14
36 35 34 33 33 31 28 28 28 28 26 24 23 23 21 21 21 20 20 20 20 19 19 22 23 26 24 13 7 6 7 10 8 5 7 15 17 17 20 18 21 22 17 15 14 13 8 6 7 4 2 2 3 3 1 2 3 7 9 8 6 4 2 1 3 3 1 3 2 3 5 2 2 2 4 3 4 3 2 2 1 3 6 7 7 9 10 12
37 36 35 34 32 31 28 27 27 26 25 24 23 21 19 19 20 20 20 19 19 18 20 23 25 28 21 10 8 6 4 8 10 9 11 15 15 18 20 18 21 23 17 13 12 16 11 5 8 2 0 4 5 3 1 0 5 10 11 10 7 4 5 3 4 3 1 3 3 1 3 2 2 3 2 4 3 2 2 2 1 3 4 4 6 7 8 9
39 38 36 34 32 31 30 28 27 25 24 22 21 20 19 19 20 19 19 18 18 18 22 24 27 27 14 5 6 4 4 8 10 11 14 15 15 18 16 15 20 20 17 12 11 17 13 9 11 4 1 7 8 4 3 2 4 7 6 7 5 2 5 4 2 1 3 2 2 1 2 3 6 6 2 4 2 2 1 3 2 3 3 3 5 5 6 8
40 38 36 34 32 32 32 29 27 25 23 22 20 20 19 19 19 18 18 17 17 20 22 23 27 23 9 3 5 5 6 8 10 12 15 16 15 15 12 13 17 16 15 12 11 15 13 11 12 4 2 5 5 3 7 4 2 5 1 2 5 4 2 4 2 2 1 1 3 3 4 4 6 4 3 4 2 1 2 4 3 3 3 4 4 4 6 8
40 38 37 34 33 33 31 29 27 26 24 21 20 20 19 18 18 18 16 16 18 20 22 23 26 18 4 2 4 6 9 9 11 12 15 16 15 13 11 13 14 12 11 9 10 13 12 12 11 6 2 2 3 5 8 5 0 5 4 1 2 4 3 3 3 3 1 1 3 3 5 4 3 2 3 3 1 2 4 3 3 3 3 4 4 5 6 8
39 37 37 35 34 33 31 29 27 25 23 21 20 20 19 18 17 16 16 17 17 20 21 22 23 12 1 2 3 8 11 8 11 13 14 17 16 11 10 13 10 9 8 6 9 12 14 14 10 6 3 1 5 7 6 4 1 2 4 4 1 3 3 3 3 3 0 2 1 3 5 5 2 2 4 3 2 1 5 4 2 3 4 4 4 6 6 7
39 38 36 35 34 33 32 30 27 25 23 22 21 20 18 17 15 14 16 16 15 20 20 18 19 10 1 3 3 8 9 6 11 13 15 17 15 12 13 13 9 8 9 9 13 15 11 9 4 2 4 3 7 8 6 4 3 1 3 4 3 4 4 2 2 3 3 1 1 3 3 3 1 2 3 1 2 2 4 5 4 4 3 4 4 5 5 6
39 38 36 36 35 34 34 30 28 26 24 23 22 21 18 16 15 14 15 15 15 20 17 13 17 9 1 2 4 6 6 7 12 14 16 15 11 15 17 10 7 10 12 11 11 8 4 4 1 1 3 3 4 7 8 5 5 3 1 2 2 3 4 3 3 2 3 1 4 3 4 6 1 1 1 1 0 2 5 5 5 4 3 4 4 4 5 6
39 38 36 35 35 35 34 31 29 27 26 25 23 21 19 16 16 16 17 17 16 15 9 6 12 6 2 5 4 4 7 10 14 14 15 12 12 17 14 7 7 11 11 8 3 1 2 1 1 4 4 3 5 8 9 7 8 9 6 4 2 2 3 3 3 1 1 2 4 4 6 11 7 5 5 1 1 3 7 6 5 5 5 5 4 5 5 5
39 38 37 35 36 35 33 32 30 29 29 26 24 23 20 16 14 14 15 14 11 7 4 6 9 2 2 6 3 5 10 14 14 11 11 12 13 13 9 9 9 8 10 7 3 1 1 3 3 5 7 7 8 8 5 5 9 11 8 5 6 5 4 1 2 2 1 3 6 7 7 10 10 9 8 2 2 3 7 6 6 6 6 6 5 5 5 7
39 38 38 37 37 34 33 33 31 32 29 27 30 24 16 13 10 8 8 7 3 0 2 7 7 0 1 4 7 12 13 11 7 6 10 12 14 12 6 6 6 4 6 6 4 2 1 5 7 7 9 10 8 3 3 4 7 9 7 4 4 5 3 2 2 3 2 3 5 5 7 10 10 11 10 4 3 5 9 8 8 7 6 6 6 6 6 7
39 38 38 37 37 34 34 34 31 31 28 29 31 15 7 10 7 9 9 3 0 0 1 4 5 1 1 5 13 16 9 5 4 4 10 11 12 11 3 3 9 7 3 2 4 2 2 7 7 3 5 8 6 5 6 7 8 8 6 5 3 2 2 3 1 2 2 3 2 0 5 11 12 11 11 6 4 7 9 8 8 7 6 5 6 7 6 5
39 38 38 38 36 34 34 32 30 30 28 29 22 5 2 5 7 14 13 5 2 1 3 4 5 3 2 6 10 8 4 5 5 3 7 9 8 6 3 5 11 7 2 3 5 4 5 6 4 4 5 9 7 4 7 8 7 6 4 4 3 2 3 3 2 2 1 2 1 1 4 10 10 10 10 8 7 7 5 5 6 6 6 6 5 5 5 6
38 38 39 37 35 33 32 31 29 29 29 26 16 5 3 9 18 23 11 4 3 3 3 3 3 4 4 4 4 2 4 5 6 5 4 7 4 2 6 8 8 6 4 8 8 7 6 3 4 6 7 10 6 3 8 9 5 4 4 5 3 3 3 2 4 3 1 0 1 1 4 8 8 9 8 5 5 4 2 4 7 6 8 8 6 5 6 8
39 39 38 36 34 32 31 30 27 27 27 20 15 10 8 18 29 23 5 3 4 2 1 2 1 4 3 3 3 2 3 2 4 6 4 6 5 2 6 6 6 7 6 7 7 6 3 3 2 6 6 8 8 5 7 7 3 0 3 4 3 5 3 1 5 5 1 1 1 1 5 6 4 5 5 1 1 3 2 3 5 4 5 6 6 5 5 7
40 39 38 36 33 32 32 28 23 26 23 15 15 13 12 23 27 16 4 3 2 3 1 1 1 3 3 3 2 2 3 3 1 2 2 4 5 4 4 2 3 6 5 5 6 4 2 3 1 6 5 5 8 6 5 6 4 2 4 2 3 8 7 4 7 5 3 3 1 1 5 3 1 3 4 1 1 2 0 1 0 0 1 3 3 3 3 4
41 39 38 35 33 36 30 19 19 26 19 14 18 15 14 21 22 12 4 2 2 1 2 3 1 4 5 1 1 3 5 3 2 3 3 4 2 3 5 1 1 3 5 5 4 1 2 1 1 5 7 6 6 5 3 3 4 3 2 2 4 7 9 9 8 4 2 2 1 1 4 3 1 3 2 1 3 1 1 1 2 2 2 2 2 3 3 2
41 39 39 34 36 38 23 12 22 25 12 13 21 17 15 19 15 8 3 2 3 3 3 1 1 4 6 1 1 4 5 4 3 3 3 2 1 1 3 4 2 3 3 3 3 1 4 4 1 3 7 7 6 5 4 4 5 3 0 3 7 9 9 9 7 2 0 1 1 0 2 3 4 2 2 1 4 1 3 2 3 3 2 3 3 3 3 2
39 39 37 35 39 32 16 18 27 21 9 10 19 17 15 17 10 3 3 3 3 3 2 1 1 3 3 1 2 2 1 3 5 3 3 3 2 1 3 4 4 5 2 2 5 1 3 6 6 6 7 6 4 1 2 4 3 1 1 2 5 6 6 5 4 2 2 1 3 1 2 4 5 2 1 1 3 3 3 3 3 3 3 3 3 3 3 3
39 39 35 37 38 22 14 22 24 22 15 11 15 17 16 13 6 2 2 2 2 2 1 1 3 3 1 2 4 3 1 2 2 2 2 3 3 2 2 3 5 9 4 2 3 1 1 2 3 3 4 4 2 3 1 0 2 3 4 6 6 5 6 4 2 3 2 3 4 2 2 4 4 2 2 1 2 4 4 4 3 2 2 2 3 3 3 3
39 39 36 39 34 19 16 18 21 28 20 9 15 20 15 8 3 4 4 3 4 2 1 2 2 2 4 6 3 2 2 3 1 3 2 1 4 5 2 2 5 8 4 6 6 2 0 0 1 1 0 2 4 5 4 2 5 8 7 7 8 4 4 3 2 2 1 3 2 3 3 2 3 2 2 2 2 2 5 6 4 3 3 3 3 4 3 3
38 37 37 38 29 21 17 11 21 32 18 10 19 18 10 3 1 5 5 3 4 3 2 2 2 4 9 10 4 1 3 3 1 5 4 2 3 4 3 3 4 4 2 4 5 2 2 2 0 1 1 1 5 7 6 3 5 5 4 6 7 3 2 2 2 0 4 4 1 3 3 2 4 2 1 1 1 1 3 7 7 5 5 4 4 3 3 2
37 36 38 33 25 22 13 7 24 30 16 13 17 10 5 4 2 5 5 4 5 4 4 4 3 6 9 7 4 3 4 3 1 4 6 3 3 5 3 4 5 4 4 5 3 2 4 2 1 2 1 3 4 7 5 2 1 1 5 8 6 3 2 3 2 2 4 2 2 2 1 2 6 5 3 3 2 3 3 4 5 4 4 4 4 4 3 2
35 36 36 28 23 21 10 9 26 28 18 16 12 2 2 6 7 6 7 6 4 3 4 4 3 7 10 6 3 2 2 2 2 2 3 2 4 3 1 0 2 2 4 5 4 4 3 1 1 2 2 3 2 5 5 4 5 6 7 7 5 5 4 5 3 1 3 0 2 1 1 2 4 4 6 7 3 2 1 1 2 1 2 3 3 3 2 2
34 36 33 24 22 19 8 12 25 26 20 14 7 3 4 7 6 5 8 5 1 3 4 6 8 8 8 5 4 3 2 2 2 2 3 3 5 4 2 2 1 2 3 4 3 4 4 3 3 3 2 2 2 1 1 4 5 3 1 1 3 4 3 4 3 1 2 2 3 1 2 3 2 1 1 2 1 2 1 1 2 2 1 2 2 1 0 2
34 35 30 22 21 16 8 14 23 24 19 9 4 6 8 8 5 5 8 5 2 4 4 7 11 9 4 2 1 3 0 1 1 2 3 5 6 7 6 5 4 2 5 5 2 2 2 1 1 0 1 1 2 2 2 5 5 1 2 1 2 1 2 2 0 0 1 1 2 3 3 3 2 1 1 0 1 1 3 2 2 2 1 1 1 2 2 3
32 30 25 19 16 13 11 16 21 22 14 5 5 8 6 4 3 4 7 5 4 9 10 8 7 6 3 1 1 3 1 2 4 3 3 3 2 6 7 5 5 5 5 5 3 1 2 1 2 1 0 1 1 2 2 1 2 2 2 3 2 1 4 4 1 1 0 2 2 2 3 3 2 3 2 2 2 3 4 4 4 4 5 5 5 5 4 4
29 24 18 14 13 15 16 17 20 18 8 3 8 8 2 1 1 2 5 5 6 12 13 8 4 5 6 4 4 6 2 2 3 3 4 3 2 5 6 2 4 6 4 1 1 2 3 3 2 1 2 2 2 1 2 2 0 2 3 5 3 1 1 2 1 1 0 3 1 2 3 2 2 3 1 4 5 5 5 6 6 6 7 8 7 6 5 5
25 19 11 9 13 17 19 20 19 13 3 3 7 3 1 1 0 2 4 5 8 11 11 7 3 3 6 7 6 7 7 5 4 3 4 4 3 6 9 4 3 6 4 1 1 1 2 3 2 1 1 1 1 1 3 2 2 1 1 3 3 2 2 2 2 2 2 3 2 2 2 3 4 4 2 5 9 8 7 7 7 8 9 9 8 7 6 5
19 11 5 7 15 19 20 21 15 7 2 6 7 2 1 2 1 1 2 5 7 7 7 6 2 1 5 8 8 8 7 6 7 5 3 4 3 4 8 5 2 4 2 1 2 1 2 2 2 1 1 0 1 2 5 4 2 2 1 2 1 1 2 2 2 1 3 3 2 1 1 3 6 5 4 7 10 10 9 8 9 11 12 10 9 8 6 5
10 5 3 7 15 21 23 19 9 4 4 5 4 3 1 2 2 1 2 2 4 2 3 5 4 5 5 5 7 9 6 5 8 5 2 5 4 2 4 4 4 4 1 2 1 2 1 1 3 2 1 2 2 2 4 5 4 3 4 5 3 1 1 1 1 1 1 3 2 2 2 2 3 4 5 4 5 7 9 10 9 10 11 10 8 8 7 6
3 4 3 5 16 25 23 13 5 5 4 1 1 2 1 2 4 2 2 2 2 1 1 4 5 6 6 5 6 8 5 4 8 6 1 5 6 3 5 8 8 7 3 2 2 2 1 1 4 4 2 3 1 1 2 2 1 2 3 5 5 4 3 3 4 1 1 1 2 1 3 3 1 1 3 2 2 3 6 8 9 9 9 9 7 7 7 7
2 5 3 5 19 25 16 6 3 3 2 2 2 3 2 2 4 3 1 1 2 1 2 3 3 3 4 5 5 7 8 6 7 7 3 6 9 5 4 8 11 11 8 4 2 1 1 3 4 3 2 1 2 1 1 2 2 0 1 1 3 3 4 5 5 3 3 1 1 1 2 3 1 1 2 2 0 0 1 3 6 9 9 9 8 7 6 6
3 4 4 6 16 18 10 5 4 2 1 2 2 3 2 2 3 3 2 1 1 1 1 2 2 1 2 2 4 8 10 6 6 9 5 4 6 3 2 8 12 12 8 4 2 2 1 3 4 3 1 0 2 1 1 0 1 2 3 2 3 3 2 1 1 2 4 3 3 2 3 3 1 1 1 1 1 1 2 3 6 9 8 8 9 7 6 6
3 3 4 6 9 9 6 6 7 5 4 2 3 4 2 2 3 3 3 2 1 2 3 2 1 2 2 2 4 9 11 5 5 8 4 2 2 2 0 9 14 12 7 4 6 6 3 3 4 4 3 2 1 2 2 2 3 4 3 2 3 3 4 3 1 2 3 5 6 5 6 4 1 1 1 1 1 3 4 4 5 7 8 8 7 6 5 6
2 3 2 4 4 3 3 3 5 7 7 5 6 6 4 3 2 1 2 3 1 1 3 2 1 2 3 3 3 5 7 3 2 5 2 1 1 3 2 5 9 8 3 1 6 7 4 4 5 6 5 5 6 6 5 4 4 3 2 4 6 7 7 4 3 3 4 5 7 7 7 1 1 1 2 2 3 4 4 4 3 3 5 6 5 5 5 5
1 3 2 2 3 2 1 1 3 8 9 8 6 4 4 4 2 1 1 2 1 1 3 2 2 3 4 5 5 6 8 1 2 4 5 3 1 2 2 1 2 1 3 3 9 8 2 2 6 9 9 9 8 7 3 4 6 6 7 8 8 8 8 4 3 4 5 4 5 8 6 2 3 5 4 4 6 6 5 7 6 6 6 5 5 5 5 4
1 2 2 3 1 1 1 1 5 8 8 8 6 4 5 7 5 2 1 1 2 2 2 2 2 3 6 8 6 6 8 3 2 3 4 3 1 1 1 1 2 2 4 2 7 6 3 3 7 10 11 8 4 3 3 5 8 10 9 9 9 8 8 7 8 8 5 5 7 10 6 6 8 7 6 6 7 7 8 10 10 9 7 5 5 5 5 5
2 2 1 1 1 3 3 4 8 10 9 7 4 4 7 9 7 4 2 1 1 1 1 1 1 3 8 11 7 5 6 4 1 3 3 3 3 2 2 2 1 2 3 1 2 3 4 6 6 8 10 5 3 3 5 6 6 5 7 10 12 11 11 13 14 10 9 7 12 7 8 11 8 6 8 8 7 8 8 8 6 6 6 5 5 6 7 7
2 3 1 3 2 3 4 5 8 11 11 7 3 4 9 11 8 4 2 2 2 1 0 3 3 2 5 7 5 6 8 6 4 3 3 3 3 3 2 2 1 2 2 3 1 1 4 6 5 8 10 5 2 1 3 5 4 4 7 11 12 13 14 15 15 13 11 12 9 3 6 11 7 6 7 4 3 3 3 4 3 5 6 6 7 8 8 8
1 2 0 1 2 2 4 7 8 9 8 5 4 4 5 9 9 4 1 2 4 2 1 3 5 4 4 3 3 4 7 6 5 7 7 7 4 3 3 3 3 1 1 3 3 1 3 4 5 6 7 4 3 2 1 3 4 5 6 7 10 12 13 14 16 13 10 10 6 2 4 9 4 3 2 2 3 3 5 6 6 6 7 8 8 8 8 8
2 1 0 2 2 1 3 6 6 7 7 6 7 5 5 9 9 6 2 1 2 4 3 6 8 5 3 4 4 3 3 2 4 7 8 8 6 4 3 3 6 7 4 3 3 1 2 2 3 4 6 4 2 3 4 3 2 2 4 9 13 13 13 13 12 9 9 11 7 3 7 7 4 5 3 2 4 6 9 10 9 7 7 8 9 8 8 9
2 1 1 2 2 1 2 5 6 6 5 5 6 4 4 6 6 6 4 2 2 3 4 7 8 5 3 4 4 3 4 4 5 4 4 4 3 4 2 2 6 8 7 6 3 1 4 4 3 4 7 2 2 2 6 6 2 3 7 12 16 14 13 9 4 5 11 12 9 8 9 4 7 8 7 5 6 8 10 10 9 8 8 8 9 9 9 9
Wind_Direction
189 186 183 185 188 187 187 188 186 185 186 189 188 188 189 190 192 191 194 194 191 198 201 201 205 203 203 208 211 215 217 220 223 214 219 234 235 236 243 248 240 228 227 215 203 195 178 177 173 161 144 139 314 189 166 355 311 218 180 181 191 174 180 176 174 185 113 143 156 170 197 187 149 156 167 172 171 118 151 189 170 166 211 181 48 108 142 151
185 183 182 185 188 187 186 187 187 185 186 188 188 187 187 189 191 190 191 190 188 193 195 196 202 202 203 206 210 212 207 212 220 228 233 237 240 244 243 240 236 219 210 202 200 190 179 183 167 155 146 162 265 202 182 299 290 160 139 189 201 168 141 156 162 159 359 139 148 162 196 204 154 150 171 192 156 150 194 189 191 206 185 168 104 143 151 158
183 182 184 186 187 188 188 189 189 186 184 186 187 187 187 187 188 187 187 188 189 189 189 192 198 198 200 202 200 197 190 199 224 249 249 242 237 242 240 235 232 220 209 203 201 195 190 180 161 153 150 184 199 210 191 136 299 292 196 198 162 145 112 64 169 148 359 114 145 153 175 197 131 135 170 191 151 179 215 200 190 213 197 169 140 151 159 164
182 182 185 186 187 191 193 191 189 185 182 184 187 187 186 184 185 185 184 187 189 186 186 191 195 194 191 188 183 177 178 194 235 254 263 247 231 233 234 231 224 217 212 207 205 202 191 166 152 145 162 183 147 221 184 109 273 165 215 194 101 134 135 126 184 123 54 273 153 140 150 166 127 143 175 172 176 206 224 220 214 221 192 165 147 160 168 170
183 180 183 187 190 196 196 189 185 182 179 182 187 186 183 182 183 184 184 185 187 186 183 184 187 186 179 175 173 172 175 205 246 252 265 241 226 226 225 222 213 207 206 206 206 196 177 154 143 132 181 180 158 188 166 58 331 134 56 17 77 181 143 111 128 134 132 204 151 144 153 149 125 160 182 193 210 214 146 206 253 269 157 156 155 164 172 178
182 179 182 188 192 196 192 184 180 178 175 177 183 184 182 182 181 180 181 181 183 182 179 177 176 175 173 172 173 178 188 209 241 258 252 223 209 212 213 210 203 198 201 200 190 179 162 151 161 168 180 174 172 175 138 61 290 155 128 56 80 351 63 96 116 158 178 166 158 154 142 128 148 172 125 222 231 81 77 48 356 322 102 142 149 162 175 184
180 177 181 187 189 189 185 179 176 175 173 174 180 182 181 181 178 177 177 178 179 178 176 173 171 171 170 167 170 186 225 236 232 255 246 212 194 197 200 200 196 194 197 185 176 182 165 161 174 176 157 159 185 165 135 127 317 155 133 124 107 13 36 41 79 155 217 174 140 132 134 139 176 169 91 237 234 126 100 8 7 124 142 143 152 170 182 188
177 176 180 184 183 181 177 173 172 174 175 174 176 178 179 179 177 176 177 178 178 177 176 172 171 171 167 162 162 188 234 226 234 228 230 207 187 186 190 191 191 191 192 185 185 184 167 168 172 172 165 171 164 148 157 148 109 80 125 134 133 48 60 64 105 131 168 121 107 149 143 120 147 117 178 236 219 140 345 349 25 133 147 163 173 180 185 191
175 174 176 177 175 172 170 170 171 173 174 172 172 176 178 178 177 177 178 178 178 177 174 173 173 169 167 166 161 180 212 217 230 206 208 196 183 182 184 187 189 188 188 191 189 176 171 179 178 180 163 157 144 145 185 187 161 106 115 126 124 92 72 86 96 91 100 91 166 171 122 78 103 78 251 217 87 4 317 360 27 163 167 181 187 188 190 193
171 170 171 171 170 168 166 169 171 170 171 170 171 175 177 177 177 177 177 177 177 177 174 174 172 167 169 173 174 188 210 213 221 218 194 186 182 182 184 189 188 184 183 184 181 171 176 182 174 181 123 130 154 146 224 216 136 107 112 102 94 101 73 47 101 77 82 83 334 189 120 77 129 230 240 125 51 336 234 150 331 216 194 190 189 195 197 199
168 167 168 171 173 172 169 169 170 167 166 168 170 172 173 175 177 177 177 176 175 176 174 174 171 170 174 182 188 198 194 194 204 200 185 182 186 186 188 193 186 184 180 173 181 181 182 176 156 143 166 149 134 113 52 156 115 117 124 103 77 96 86 44 95 72 335 96 355 307 126 80 125 225 219 99 42 344 207 169 129 235 228 205 194 197 201 208
167 167 169 173 175 175 172 170 170 167 166 167 169 171 172 174 176 176 175 174 175 174 172 173 174 172 174 195 211 209 174 182 187 181 180 180 187 190 191 192 186 189 184 175 192 190 190 185 158 130 293 153 139 133 130 139 123 121 133 114 97 126 94 36 56 5 315 106 354 320 179 211 201 217 147 88 8 16 213 194 166 222 243 238 213 207 208 208
167 168 170 174 175 174 171 171 171 169 167 166 166 170 172 172 173 174 172 172 172 170 171 174 175 174 173 205 213 204 182 178 177 178 178 177 184 189 189 185 186 196 194 187 192 190 195 186 161 132 1 138 140 146 123 107 129 126 114 116 128 177 137 30 1 308 300 94 331 271 236 228 198 211 84 63 343 319 231 197 185 206 213 231 225 223 220 209
167 167 170 173 174 171 169 171 169 168 168 164 164 166 168 168 169 169 167 168 167 167 172 174 173 173 184 213 188 187 178 172 177 181 178 174 175 176 174 175 182 197 201 201 193 187 186 167 142 119 52 60 128 142 120 95 14 129 133 166 141 192 173 56 9 313 194 120 323 247 245 262 168 128 64 33 358 241 248 214 191 201 205 224 221 232 233 219
166 167 170 172 171 169 169 170 167 166 165 161 162 163 163 166 166 165 163 162 163 168 170 170 171 169 197 230 183 175 172 171 182 186 182 174 167 159 161 168 174 186 185 186 172 162 160 147 126 115 92 45 146 138 116 98 59 111 158 172 157 213 172 79 37 342 348 120 329 240 243 263 267 68 78 38 25 227 249 247 243 228 216 220 217 230 235 231
165 166 169 171 171 170 170 170 166 164 162 160 161 160 161 163 161 156 155 156 160 167 162 163 174 177 209 193 157 167 174 183 187 186 180 173 170 157 146 149 144 144 142 132 134 134 133 125 102 97 107 150 165 136 120 129 138 181 221 166 157 198 178 138 107 6 351 112 211 245 265 265 347 45 91 64 16 358 278 260 257 241 224 223 221 228 235 239
164 165 167 169 171 169 170 169 164 162 163 160 157 158 160 157 153 144 146 153 154 157 154 161 176 184 311 146 149 174 181 186 182 178 175 173 172 155 138 125 118 123 120 118 126 122 92 78 103 171 117 159 181 145 146 169 166 164 257 125 151 199 181 181 148 58 342 243 212 210 256 255 198 117 210 198 17 318 293 274 263 254 246 230 220 227 232 238
164 164 165 167 167 167 168 166 162 162 162 160 158 158 153 145 143 137 139 143 135 141 149 162 169 181 243 182 173 173 163 167 168 167 172 167 157 151 138 121 131 130 124 122 130 114 47 47 175 157 145 170 182 177 175 175 170 171 179 161 153 205 214 217 151 100 330 221 221 202 235 253 247 241 249 219 125 277 275 276 278 272 268 256 241 239 231 234
164 164 165 165 165 165 165 166 166 163 161 160 155 144 133 127 127 128 140 147 136 136 167 173 171 190 198 177 146 118 136 148 153 154 159 157 152 144 122 123 134 134 145 152 160 186 126 128 168 165 165 180 185 196 194 165 170 169 167 157 151 170 205 229 95 48 314 206 221 222 236 257 259 260 263 222 141 267 271 274 275 266 264 260 249 243 236 237
162 163 164 164 164 165 165 169 168 164 164 158 149 139 131 138 132 134 162 177 179 158 161 166 168 126 71 134 125 122 125 130 132 140 150 156 150 130 98 120 130 136 160 159 147 168 208 163 180 183 174 178 178 163 78 109 145 144 137 131 149 171 166 115 89 45 343 229 221 232 256 269 268 269 272 245 162 256 264 262 259 254 251 248 247 248 242 242
161 162 164 163 164 164 165 170 167 166 167 158 154 151 155 162 150 156 162 142 146 321 62 120 119 94 30 125 138 135 123 102 81 121 149 157 156 145 131 166 159 161 160 111 114 122 221 194 185 170 147 146 135 105 100 111 124 135 148 144 144 194 133 95 99 65 11 249 208 98 271 266 264 267 269 250 208 237 246 247 252 255 252 247 248 253 254 259
161 162 163 163 164 164 166 170 169 168 167 163 169 203 211 162 122 144 147 104 98 51 54 88 85 70 69 128 149 145 120 111 110 128 153 160 177 172 163 181 171 162 113 130 135 140 202 205 154 108 101 98 92 106 109 105 122 137 142 144 153 173 127 110 125 96 37 255 211 96 271 269 265 265 261 248 239 239 239 258 269 272 266 260 256 260 271 274
160 161 163 164 166 166 167 169 168 168 170 173 188 230 183 144 133 143 143 85 99 30 46 87 89 104 110 146 192 183 125 131 151 170 174 165 183 180 154 168 162 136 148 175 170 168 188 206 106 127 140 121 104 118 115 107 122 133 138 153 155 153 158 175 159 136 64 341 314 225 268 275 264 255 248 242 261 270 294 275 265 265 262 268 279 283 280 275
159 160 162 162 163 165 164 163 164 172 178 184 204 212 157 139 143 145 127 79 116 10 31 73 89 143 142 158 188 176 125 97 152 155 174 173 157 150 158 152 137 139 170 184 174 166 149 5 84 147 162 143 133 145 147 146 145 123 186 164 138 163 190 7 124 135 138 155 339 286 265 267 246 242 235 193 271 257 291 269 243 247 253 266 282 278 262 263
158 160 161 158 158 159 158 157 165 177 181 193 214 207 158 145 151 150 105 97 117 18 29 130 82 164 159 141 149 157 123 74 42 111 152 169 145 144 148 108 149 162 161 152 158 162 81 3 184 147 144 143 142 157 184 181 160 192 226 199 151 163 153 105 129 148 183 187 75 327 261 246 149 240 225 119 294 222 328 328 205 320 277 269 284 291 279 263
159 159 159 157 155 154 151 155 173 175 177 207 208 189 167 158 159 162 117 68 144 105 146 156 101 156 155 111 57 150 142 110 2 36 98 141 139 135 142 118 312 160 148 138 143 152 89 53 257 154 145 143 147 166 202 202 162 176 214 151 134 142 133 135 155 172 201 182 72 324 256 246 272 254 176 60 301 266 102 79 64 34 9 4 337 333 331 310
160 159 158 157 156 154 150 154 168 167 170 213 199 179 173 166 159 170 119 67 185 155 132 147 343 157 154 341 321 163 161 138 113 73 63 110 118 57 156 165 140 124 145 150 155 140 115 133 204 157 146 148 161 174 191 197 171 164 296 120 134 134 135 148 158 169 20 88 124 31 304 275 269 258 120 331 277 180 123 105 75 61 47 31 16 8 359 348
160 160 158 158 158 157 152 149 159 172 181 192 188 177 167 162 155 151 118 131 178 127 128 174 47 127 141 10 39 80 146 121 131 135 27 62 99 359 165 166 138 117 105 199 179 142 113 164 178 160 157 167 175 159 156 175 153 114 328 98 120 115 118 134 133 110 49 278 206 127 15 267 252 232 134 305 255 188 145 116 97 74 49 37 40 37 28 24
160 160 158 158 159 159 156 151 160 181 180 164 174 168 156 159 155 92 117 172 151 91 79 125 125 123 141 105 59 34 47 47 100 152 40 67 71 35 134 148 122 110 61 360 137 89 27 194 197 173 175 166 117 35 23 204 75 138 151 101 85 74 75 80 87 103 93 255 222 112 25 264 255 242 180 159 260 222 167 123 108 80 54 32 41 40 36 43
162 160 158 158 159 155 146 151 171 179 174 158 164 158 149 159 163 131 165 190 144 113 71 134 166 151 147 138 72 10 107 50 51 112 68 82 56 38 81 110 102 105 60 37 68 59 299 138 325 334 328 132 107 65 25 16 106 141 152 104 88 65 56 65 42 75 178 239 221 59 13 290 268 258 202 195 261 205 146 136 131 107 89 70 54 41 34 41
163 161 161 160 160 154 140 151 184 179 173 163 159 155 148 129 87 157 169 169 134 133 152 158 164 149 159 155 130 114 106 59 136 140 138 139 70 86 137 146 110 103 102 81 67 52 100 114 153 50 28 143 119 79 45 52 119 140 157 124 107 73 72 109 67 118 223 222 85 35 348 263 238 248 36 30 316 310 149 138 131 122 98 74 58 45 33 28
163 162 163 162 160 156 144 161 181 177 175 165 158 163 158 127 172 178 151 142 156 167 175 172 179 168 165 150 117 131 124 100 171 149 141 141 135 146 162 179 160 143 162 150 118 108 104 91 56 65 267 237 139 102 76 55 213 178 154 148 141 122 156 190 173 205 233 225 53 9 317 241 244 261 288 264 227 237 226 130 112 111 96 81 62 47 39 31
162 162 162 162 160 158 145 152 171 175 175 168 164 172 138 159 189 173 143 161 174 154 146 141 150 157 151 139 133 140 100 115 172 153 121 127 156 158 9 299 153 136 163 153 141 151 129 103 172 142 178 243 196 140 141 177 197 177 159 163 165 147 172 197 176 233 259 194 59 348 293 242 252 268 261 241 197 163 219 69 46 22 47 51 38 19 14 54
161 161 161 162 164 162 140 148 168 174 171 170 172 130 145 183 185 132 147 176 127 95 123 119 124 138 145 147 167 169 73 59 160 137 123 146 161 176 199 196 242 32 110 134 155 168 164 171 179 164 151 187 208 215 143 137 153 174 152 155 173 165 187 195 178 207 207 105 99 153 232 223 208 93 260 243 77 87 127 47 317 288 326 345 344 316 337 98
161 162 162 161 166 169 152 154 166 171 168 168 166 159 178 190 172 145 162 164 111 121 113 118 132 139 141 91 150 205 95 92 171 127 145 167 172 183 186 182 205 190 137 152 179 162 158 155 64 7 277 193 174 298 357 100 124 143 8 69 200 186 124 118 79 112 114 103 146 183 241 259 262 274 256 338 317 225 145 130 241 225 129 144 154 145 133 116
162 163 162 161 169 177 166 160 165 170 172 165 166 182 199 184 159 172 156 129 139 139 121 123 141 144 146 99 178 243 329 111 165 172 173 188 194 188 186 175 187 201 177 153 152 164 151 88 359 348 70 31 358 306 339 88 146 142 156 178 188 53 102 114 111 51 14 243 182 170 242 271 277 254 206 127 200 188 130 148 191 157 127 147 148 141 144 138
160 157 157 163 174 175 166 164 167 168 172 195 184 186 194 116 119 153 133 111 132 139 133 139 166 165 158 160 182 191 173 122 166 197 172 175 212 185 185 201 181 194 212 149 144 216 157 108 13 341 93 62 323 288 57 20 78 142 172 167 136 69 88 120 156 102 137 242 192 168 236 251 217 218 104 117 173 179 148 156 167 145 141 153 153 151 152 144
156 147 140 154 164 163 161 163 163 156 150 214 186 167 63 125 78 127 137 125 134 150 154 154 170 186 169 170 173 172 170 159 166 182 163 176 216 178 172 190 188 186 207 195 153 202 132 109 67 347 74 74 333 222 131 67 12 9 172 143 125 199 199 168 178 161 183 225 230 194 234 264 218 203 148 165 182 180 161 159 163 156 158 161 157 156 153 142
147 139 124 146 153 153 155 155 150 140 178 203 185 157 106 119 86 227 176 136 136 158 169 161 154 186 179 176 160 160 180 173 157 167 177 187 213 183 173 175 166 179 180 150 172 142 103 129 125 75 316 359 331 236 188 161 91 45 119 137 5 290 206 181 166 172 204 206 224 205 189 236 219 211 212 195 185 174 159 163 174 167 165 166 158 154 152 138
140 134 128 150 151 149 147 141 134 158 200 205 184 152 122 108 118 277 292 132 137 168 176 167 164 160 166 168 153 162 186 175 162 178 208 181 182 210 197 176 142 151 102 50 122 137 92 161 141 105 332 218 187 220 212 182 147 141 164 169 176 125 43 243 151 67 242 196 194 225 228 232 209 207 216 194 169 168 163 169 179 169 159 158 153 153 147 131
128 124 128 163 155 148 142 136 148 190 192 186 135 128 140 138 136 135 350 51 87 355 129 140 153 157 154 156 162 167 168 159 174 189 201 184 198 228 206 183 151 141 128 89 135 160 148 116 129 135 177 197 190 347 300 271 155 161 183 184 180 151 132 188 194 148 359 239 193 209 262 263 153 167 217 183 136 171 173 177 176 160 150 151 153 156 143 127
116 131 130 167 161 154 147 147 169 172 170 166 132 118 125 118 124 143 143 58 71 47 64 96 121 143 150 158 161 161 158 160 181 190 199 203 208 220 204 172 152 152 155 141 133 155 97 95 112 130 173 222 311 329 254 286 310 317 279 217 173 167 177 197 206 175 134 113 88 96 285 279 98 114 226 218 44 152 206 201 168 151 151 157 162 159 133 113
101 122 93 123 159 164 156 155 170 160 174 177 96 75 89 106 118 143 172 155 98 94 94 109 130 140 160 157 150 163 167 167 184 191 203 202 199 243 224 157 149 154 157 138 137 148 102 106 111 100 86 330 298 267 139 314 279 230 237 206 177 198 194 178 208 155 148 165 156 165 251 252 116 95 241 256 294 246 238 227 173 154 157 168 169 161 136 118
94 104 73 90 146 175 176 172 180 173 158 143 106 97 76 74 119 140 167 171 160 141 129 121 147 151 155 145 148 171 176 175 194 198 201 180 174 353 297 167 159 160 169 171 168 175 181 149 124 118 122 134 193 203 193 204 215 225 223 178 181 155 97 85 113 139 190 200 178 191 238 236 115 80 225 200 222 216 211 217 193 167 164 171 168 155 137 129
99 89 58 61 95 154 197 196 177 157 148 135 127 134 121 78 72 122 143 131 127 160 131 127 161 106 119 131 111 162 181 167 180 190 167 147 172 11 355 194 180 176 188 122 144 159 179 168 153 157 159 173 193 200 205 190 183 213 199 175 189 172 152 158 152 167 218 199 174 206 235 222 94 224 217 154 178 198 183 177 197 181 166 168 161 150 143 141
107 99 116 70 41 35 344 332 150 155 159 145 132 147 147 123 94 27 74 111 153 142 81 99 150 98 118 146 128 164 188 163 38 175 164 152 149 16 344 257 182 184 358 93 142 144 137 182 186 187 190 196 198 199 189 133 149 191 197 183 182 180 176 162 129 194 206 148 177 224 233 187 192 209 212 186 185 195 176 166 176 179 175 171 154 145 142 137
65 98 134 124 115 138 84 156 160 159 170 163 149 155 145 131 129 117 32 19 172 154 64 69 150 143 157 160 147 170 182 149 57 148 147 134 124 7 344 92 106 354 356 133 155 126 105 201 206 205 210 208 179 164 157 149 180 198 188 171 168 169 170 177 203 211 150 126 226 230 206 214 213 195 207 207 187 190 190 182 178 172 170 161 139 140 142 137
61 79 8 5 136 156 155 177 169 161 169 171 149 139 143 143 149 151 121 50 149 178 92 89 183 183 167 164 153 148 157 144 122 142 129 134 143 120 50 70 113 325 3 119 169 97 143 200 209 204 215 213 101 134 173 169 186 188 168 171 172 170 175 191 214 210 154 186 239 215 175 212 212 184 214 216 190 193 192 177 162 151 149 142 142 153 152 149
71 92 355 342 29 117 123 130 146 157 163 158 133 161 164 159 157 151 121 114 147 240 222 149 171 169 155 157 144 150 167 170 176 186 167 146 142 135 121 115 139 334 40 136 170 77 168 191 182 189 213 213 116 157 192 163 160 167 178 180 171 174 187 199 215 211 189 215 239 139 175 221 205 182 218 214 171 183 139 117 137 157 160 159 165 169 162 159
81 105 35 48 68 79 115 126 138 153 159 160 166 175 171 162 156 144 105 127 155 186 211 137 134 118 121 125 109 159 183 176 176 187 169 152 160 172 176 176 155 99 67 149 155 243 213 185 149 167 209 209 136 117 132 153 167 170 178 181 176 185 197 209 219 213 205 229 236 106 240 245 202 174 228 91 101 124 136 159 181 181 175 173 174 172 164 163
98 115 60 107 86 58 146 149 145 149 162 184 182 170 173 175 163 138 96 19 130 151 148 135 127 109 93 91 89 143 191 167 169 179 166 160 170 172 183 193 159 152 164 168 157 172 194 170 113 149 198 206 148 142 136 105 96 146 184 193 191 195 201 209 218 204 197 217 213 200 258 250 168 164 210 138 143 174 179 181 186 191 187 179 178 176 169 168
98 95 52 108 99 42 151 152 154 161 173 185 176 162 171 172 155 137 127 27 31 106 133 138 130 110 102 107 103 137 143 116 108 117 122 114 99 96 94 133 148 155 164 165 154 144 166 160 134 170 193 193 30 143 136 103 95 223 220 202 193 201 207 201 204 206 206 209 200 208 236 214 145 170 200 187 180 198 200 187 183 193 191 181 180 176 171 171
Height
738 740 743 748 751 754 756 759 762 765 768 771 773 775 777 780 782 784 786 788 791 792 794 796 799 802 804 807 810 812 814 815 816 819 815 808 808 811 812 812 813 814 815 816 817 817 816 816 816 817 816 818 821 821 821 821 820 821 826 833 836 838 837 834 835 835 833 833 839 845 843 840 843 846 846 846 846 847 849 849 849 850 850 850 851 852 853 854
735 738 742 746 750 753 755 758 761 764 767 770 772 774 776 779 781 783 785 787 789 791 793 795 797 800 803 807 809 811 814 816 819 817 807 805 809 810 811 811 812 813 814 815 815 815 814 815 815 815 816 820 823 821 821 822 821 824 829 833 834 833 833 831 830 832 833 832 835 841 842 840 840 842 844 845 846 848 848 848 849 849 849 850 851 852 853 855
733 736 740 744 748 751 754 757 760 763 765 769 771 773 776 778 780 782 784 786 788 789 791 794 797 800 803 806 809 812 815 817 819 810 799 804 809 808 810 810 811 812 812 813 813 814 813 814 814 814 817 821 823 822 821 822 823 826 829 830 831 830 832 835 833 834 836 834 834 840 843 842 841 842 843 844 846 848 846 845 847 848 846 848 851 852 853 855
731 734 738 743 747 749 752 756 759 762 764 767 770 772 775 777 779 781 783 785 786 789 790 793 797 800 803 805 809 812 814 818 814 801 797 803 805 806 808 808 809 810 811 812 813 813 813 814 814 814 818 822 823 822 821 822 824 826 828 828 830 831 832 835 836 836 839 837 835 839 843 843 842 843 842 843 845 845 842 839 841 842 841 844 849 851 853 854
729 732 737 741 745 748 752 755 758 761 763 766 769 772 774 776 778 780 782 784 786 788 790 793 797 800 803 805 809 810 814 819 807 795 798 800 801 804 805 807 808 809 810 812 813 813 813 813 814 816 818 821 823 822 822 823 823 826 832 833 834 834 832 836 840 840 841 840 838 840 841 840 841 843 842 842 843 840 838 838 839 839 839 842 846 850 852 854
727 730 735 739 743 747 751 754 757 760 762 765 768 771 773 775 777 779 781 784 786 788 791 793 795 799 802 804 809 809 812 813 800 794 797 796 799 802 803 805 806 808 810 810 812 813 812 813 814 818 819 821 822 821 823 826 823 825 834 837 837 837 834 839 842 842 843 839 838 839 838 839 841 842 844 843 839 837 837 839 840 840 841 841 845 848 850 851
726 729 733 738 742 746 750 753 755 758 761 764 768 770 772 774 776 779 781 784 786 788 790 792 795 798 801 805 809 811 808 802 795 795 796 795 798 799 801 804 804 807 809 809 811 811 811 812 814 817 819 822 822 821 823 825 824 824 832 837 839 839 839 843 844 845 844 838 839 840 838 841 840 842 847 844 837 836 838 840 841 842 842 843 844 846 847 848
724 727 732 737 741 745 748 751 754 757 760 764 767 769 771 774 776 778 780 783 784 787 789 791 794 797 800 804 806 810 806 797 795 795 795 795 797 798 800 802 804 807 807 808 809 808 809 810 813 815 818 820 820 822 824 823 824 824 831 838 841 841 841 845 846 845 844 841 842 840 839 843 843 845 847 841 835 837 839 840 841 842 842 843 844 845 846 847
722 726 731 736 740 744 747 750 753 756 760 763 766 768 771 773 775 777 779 782 783 786 788 790 794 796 800 801 802 806 801 794 794 794 794 795 796 798 799 801 803 805 806 807 807 807 808 809 810 811 815 818 818 822 823 822 824 826 832 838 840 842 843 844 844 844 844 843 843 840 841 845 847 848 842 837 837 839 840 840 841 841 842 842 842 843 844 845
721 725 731 735 740 743 746 750 753 756 760 763 765 768 770 772 774 777 779 781 783 785 787 790 793 796 799 799 801 802 794 791 795 794 795 795 796 798 799 801 802 804 805 806 806 806 806 807 808 809 813 817 819 824 824 822 824 827 833 836 839 843 844 843 842 844 843 843 843 840 842 845 846 847 838 835 840 841 840 840 842 841 840 840 841 842 843 844
720 725 730 735 739 742 745 749 753 756 759 762 765 767 770 772 774 777 779 781 783 785 787 790 792 795 797 797 798 797 791 792 794 793 795 795 796 798 799 801 801 803 804 804 805 804 804 806 807 810 813 815 820 826 826 825 825 828 830 834 841 841 842 843 841 844 842 842 844 840 843 846 847 844 835 836 841 840 839 839 842 842 839 839 840 841 842 843
719 724 729 734 738 741 745 749 752 755 758 761 764 767 769 771 774 777 778 781 783 785 787 789 792 794 796 796 795 792 791 793 793 793 795 795 797 798 799 801 801 802 803 803 803 803 804 805 807 812 813 812 820 826 826 828 828 828 828 832 842 840 839 844 843 845 842 842 846 842 843 843 842 839 833 837 840 839 839 838 840 841 840 840 840 840 841 842
718 723 728 733 737 740 744 748 751 755 758 761 764 766 769 771 774 776 778 780 782 784 787 789 791 793 795 796 793 791 792 792 792 793 794 794 797 798 799 800 800 802 802 802 802 803 804 805 807 812 812 813 820 823 823 829 829 829 831 832 839 840 840 845 846 845 842 844 846 844 843 836 832 833 833 838 840 838 837 836 837 838 839 839 839 840 839 840
717 722 727 732 736 739 744 748 751 754 757 760 763 766 769 771 773 775 777 779 781 784 786 788 791 793 795 793 790 791 791 791 792 793 793 795 796 797 798 799 800 802 802 802 802 802 804 806 807 811 814 816 820 822 823 830 830 830 834 836 841 843 842 845 848 845 841 844 844 842 844 834 827 832 836 839 839 837 835 833 835 836 837 837 838 838 837 838
717 722 727 731 735 739 743 747 751 754 757 760 763 765 768 770 773 775 776 778 781 783 785 788 791 793 794 792 789 790 790 791 792 792 793 794 795 796 797 798 800 801 801 802 801 803 805 806 808 812 819 820 819 823 827 831 833 834 836 842 849 847 843 845 850 849 844 844 842 842 843 833 827 831 836 840 839 838 835 832 833 834 835 835 835 836 835 835
716 721 726 730 734 738 742 747 750 753 756 760 762 765 768 770 772 774 776 778 781 783 786 789 790 791 792 791 789 789 790 790 790 791 792 793 794 794 795 798 800 800 801 802 802 804 805 807 812 816 819 821 819 820 828 835 838 838 835 841 851 848 842 843 849 853 849 845 842 843 842 833 830 833 835 839 839 838 836 833 832 832 833 833 833 834 833 833
715 720 725 730 734 738 742 746 750 753 756 759 762 765 768 770 773 774 776 779 782 784 786 788 789 791 791 790 789 788 787 788 789 790 791 793 793 793 795 797 800 801 802 803 804 805 806 810 817 818 817 820 818 816 829 841 841 841 840 844 852 849 843 842 846 852 851 847 843 844 843 833 831 833 833 836 838 838 836 832 831 831 831 831 831 832 831 831
714 719 724 729 733 737 742 746 749 752 755 758 762 765 768 771 774 774 776 780 783 786 789 788 789 793 791 787 786 784 783 786 788 789 791 792 793 793 794 796 799 801 802 805 807 807 809 813 816 817 819 823 820 814 824 835 833 836 841 843 851 853 848 843 843 851 852 848 844 845 845 835 830 831 830 832 837 837 834 832 831 831 830 829 829 829 829 829
714 718 723 728 733 737 741 745 748 751 754 758 761 764 769 772 774 776 778 779 780 783 786 783 784 787 784 781 781 781 782 785 787 789 790 791 793 794 794 796 799 800 804 808 809 809 810 814 818 819 822 824 818 811 814 819 819 826 833 834 840 845 846 846 846 853 854 848 845 844 842 836 831 830 828 829 835 836 833 832 831 830 829 828 828 827 827 827
713 717 722 727 732 736 740 744 747 750 753 756 758 762 766 768 771 776 779 777 774 775 775 773 776 780 778 777 779 781 783 785 787 789 790 791 792 794 796 798 800 802 805 808 811 813 812 816 819 816 816 816 815 816 818 819 819 825 831 834 837 837 839 848 851 855 856 847 843 844 843 839 834 830 827 828 833 835 832 831 829 827 827 826 826 826 825 825
711 716 721 726 731 736 740 743 746 749 751 753 754 754 754 753 757 764 770 774 775 774 772 771 774 777 777 776 777 778 781 786 788 788 790 791 791 794 798 800 802 806 810 811 812 814 814 816 816 812 813 815 820 824 824 824 825 828 832 835 841 841 841 851 854 854 858 849 843 849 849 839 833 828 825 826 830 831 828 826 825 823 823 823 823 824 824 823
711 715 720 726 730 735 739 742 746 749 751 753 752 751 748 746 748 752 759 768 774 773 772 773 775 777 777 777 777 777 779 786 790 790 790 791 791 794 800 800 801 807 814 813 812 816 819 815 814 818 822 823 829 829 824 827 829 830 835 836 840 844 845 851 855 856 857 849 843 850 850 835 827 825 822 823 824 824 825 826 826 825 823 822 821 822 823 823
710 714 720 725 729 735 739 742 746 749 750 751 751 750 748 747 749 753 756 764 772 775 774 774 776 778 779 778 778 777 778 784 789 790 790 790 792 794 797 800 802 809 814 810 810 817 821 817 819 827 825 822 830 829 823 827 831 832 835 836 840 846 843 842 849 857 859 855 849 851 849 833 823 822 820 823 827 826 829 831 829 828 826 823 823 823 824 823
709 714 719 724 729 734 738 742 746 748 749 750 750 748 747 748 750 753 757 765 774 775 774 776 777 778 779 778 777 777 780 783 786 788 789 790 793 795 796 800 805 810 811 808 808 813 819 827 832 830 823 820 826 829 824 823 831 838 835 832 838 843 843 841 847 854 857 858 856 851 844 830 823 824 820 824 832 830 830 830 827 828 828 826 825 824 824 823
708 714 719 723 729 733 737 742 745 747 749 750 749 746 747 748 749 752 757 768 777 777 776 777 777 778 777 776 777 777 780 784 787 788 789 789 791 795 799 802 805 809 812 811 811 812 820 835 837 829 826 823 824 828 824 820 828 838 835 831 833 834 840 848 850 849 847 850 855 854 843 830 825 823 820 823 827 824 826 826 824 824 825 825 824 822 822 822
708 713 718 723 727 731 736 740 743 746 750 749 745 745 747 746 749 750 754 771 780 779 779 777 778 778 776 777 778 777 781 788 789 788 789 791 790 793 800 805 806 810 814 814 814 819 829 838 836 827 826 826 826 827 826 824 828 833 835 836 836 833 839 847 847 844 842 846 856 859 847 834 826 817 818 826 823 820 823 823 822 824 823 823 823 821 822 821
708 713 717 721 725 728 731 735 740 744 747 746 742 744 746 746 749 748 757 782 786 776 778 779 778 776 776 779 777 777 785 789 790 790 790 791 791 791 797 805 807 810 815 813 815 825 833 838 835 827 826 827 826 825 825 825 825 831 840 842 837 834 838 844 843 842 846 850 855 857 849 843 835 820 820 829 823 818 821 821 821 822 821 822 822 821 822 821
708 712 716 721 724 726 727 730 736 740 740 740 741 744 745 746 749 747 764 791 786 771 774 778 776 775 777 779 778 781 785 784 787 793 791 791 793 792 796 803 804 810 817 813 815 827 831 832 832 828 826 825 824 827 830 826 825 838 851 847 839 839 840 842 841 844 853 853 847 851 854 849 838 822 821 827 821 816 819 821 821 821 821 821 821 821 821 821
708 712 716 720 724 727 728 730 734 737 738 740 742 744 745 747 748 750 771 787 777 768 773 775 776 777 778 779 782 785 784 784 788 792 791 791 792 792 797 803 803 810 818 813 815 828 833 832 830 825 821 824 833 841 840 829 828 844 854 846 843 845 845 845 844 844 852 852 846 855 863 853 834 820 819 825 820 814 816 819 820 820 821 821 821 821 821 821
708 712 716 719 722 726 728 731 734 735 738 740 742 744 745 747 749 763 786 781 767 772 776 775 777 778 779 781 786 788 786 789 790 790 792 793 793 794 799 804 803 808 817 818 823 832 834 834 833 831 829 832 841 847 847 840 836 844 844 839 842 845 844 847 847 847 853 853 853 866 874 864 843 821 814 819 817 812 814 818 819 818 820 821 821 822 821 821
708 712 716 718 721 723 726 731 732 734 739 740 742 744 744 750 755 771 786 768 760 776 779 777 780 778 777 779 785 789 789 792 790 788 792 794 796 798 801 804 804 811 819 821 828 833 832 832 833 836 840 839 836 839 847 847 843 841 834 832 842 848 849 850 851 853 856 855 861 875 880 872 852 824 813 817 818 816 814 815 818 818 818 820 821 822 823 822
708 712 715 718 721 723 725 728 729 734 738 738 743 742 741 757 764 765 769 760 761 775 774 774 779 777 776 777 782 789 789 792 791 788 791 796 799 799 799 800 800 812 822 821 826 832 830 832 836 838 842 838 829 834 847 847 841 837 831 833 844 854 859 857 858 862 859 858 869 879 878 869 847 821 813 816 817 817 816 814 816 817 818 821 823 824 824 824
709 712 716 719 721 723 725 727 729 734 737 739 742 739 742 760 762 753 757 759 759 764 763 768 775 774 776 779 786 789 788 791 792 791 793 795 798 799 800 801 797 801 811 818 825 830 830 834 837 836 836 834 826 828 839 841 837 832 828 830 839 854 865 865 870 874 866 863 874 881 875 860 838 819 812 811 811 815 818 819 820 821 822 824 825 826 825 825
709 712 716 719 721 724 726 727 730 733 737 740 739 741 750 758 753 747 754 758 758 761 762 766 774 776 777 780 785 785 786 794 795 792 795 796 798 801 801 803 802 797 803 816 821 822 826 830 832 831 832 832 828 827 827 826 831 833 829 828 832 840 848 855 861 860 859 864 874 880 868 843 827 819 815 814 815 819 823 826 826 825 827 828 828 828 826 825
710 714 717 720 722 725 726 728 731 733 738 739 737 744 749 748 746 745 748 754 758 762 764 766 772 778 782 783 785 783 783 793 797 794 796 795 795 797 795 796 803 800 801 812 818 818 821 825 831 837 837 833 830 830 827 823 831 840 837 832 833 829 833 856 870 864 864 865 865 869 856 830 818 814 815 820 819 819 824 827 826 823 826 829 828 827 827 826
711 714 718 721 722 724 726 728 731 734 737 736 738 742 738 735 739 739 739 747 753 756 764 771 773 778 786 787 787 787 783 787 795 796 797 796 792 792 791 789 796 797 792 799 813 817 819 827 835 838 838 836 834 834 831 827 830 838 839 836 837 834 834 856 877 879 873 858 848 854 845 827 820 811 812 819 815 815 823 824 822 821 823 827 826 827 828 828
711 714 717 721 722 724 726 728 731 735 737 735 733 736 733 732 737 737 737 744 747 747 756 768 773 774 780 785 785 786 784 787 795 795 795 798 792 789 791 789 790 792 788 792 803 808 812 827 838 836 834 838 840 838 833 832 832 833 835 833 836 841 836 838 854 868 869 853 845 851 845 832 826 816 812 818 814 812 819 821 820 821 822 824 825 826 827 827
710 713 718 721 722 723 725 729 732 735 739 737 731 733 736 736 739 741 739 740 744 745 748 758 766 768 772 776 779 782 781 784 793 794 793 796 788 781 785 788 789 790 788 789 795 799 806 822 837 840 836 837 839 835 832 835 835 831 831 829 830 837 837 837 845 853 856 854 846 849 852 843 830 816 809 813 813 810 816 821 819 820 821 821 823 825 826 827
710 714 719 721 721 724 725 728 732 736 739 736 728 731 738 739 743 745 740 737 740 744 745 749 758 765 768 768 771 779 779 780 789 791 789 791 787 779 779 781 786 792 791 788 791 798 804 814 831 840 838 836 836 832 829 831 835 835 833 832 832 832 831 834 838 836 838 848 847 846 848 837 820 809 802 802 804 804 812 820 816 815 817 818 820 823 825 826
708 712 718 720 720 724 726 729 735 738 737 731 725 732 740 741 744 747 743 739 740 743 744 745 751 759 765 765 767 774 777 779 784 785 782 784 784 781 779 777 783 793 795 792 792 798 802 807 824 839 840 836 833 830 826 822 827 832 831 832 834 836 836 834 836 836 833 839 845 845 838 819 806 805 800 798 802 802 808 814 811 811 814 816 820 822 823 825
706 711 718 720 719 723 725 730 736 737 735 731 729 735 740 739 742 745 746 744 743 745 745 745 749 753 758 763 764 769 775 779 782 780 780 781 778 777 776 774 779 789 794 794 792 796 801 806 822 838 840 833 830 833 835 829 825 825 824 824 824 828 835 833 837 846 842 839 843 845 835 811 800 806 806 802 805 806 807 808 808 811 814 817 821 821 822 824
704 710 718 719 719 721 723 730 736 735 734 733 731 734 737 738 740 743 745 745 744 746 747 747 750 752 754 757 759 765 771 776 780 777 776 776 771 769 771 772 776 780 784 790 792 795 801 809 824 837 837 834 835 840 847 844 834 827 825 823 819 821 823 821 828 840 847 851 849 847 840 814 801 812 814 809 812 814 814 811 808 812 816 818 820 821 824 825
706 712 717 717 718 719 721 730 737 736 735 735 733 735 738 738 740 742 744 743 743 745 746 746 749 752 754 756 759 763 765 771 776 773 770 772 770 771 775 774 775 777 780 786 792 797 801 806 822 836 836 834 835 836 842 844 837 828 826 825 823 820 817 818 823 826 837 848 843 844 842 815 801 815 818 816 820 819 819 817 811 812 816 818 819 821 824 826
709 713 716 717 719 720 720 724 728 732 736 736 734 737 739 739 740 741 741 741 742 743 742 745 748 749 752 756 757 757 759 765 771 771 770 771 773 779 781 775 773 775 776 779 781 787 794 799 814 832 837 836 836 835 835 836 833 825 822 824 823 821 823 829 830 826 831 835 829 831 831 809 801 814 816 816 819 815 814 817 813 812 814 816 819 821 824 826
709 713 718 719 720 721 721 720 720 727 733 732 733 736 738 740 742 741 740 741 745 743 739 745 749 748 751 755 756 757 758 761 765 769 774 774 776 783 783 778 775 772 773 775 772 778 789 794 801 814 826 831 830 827 820 817 823 824 822 823 822 821 823 822 825 828 828 829 827 822 814 804 803 809 809 812 814 809 810 816 816 814 815 816 819 821 823 825
708 713 719 722 723 723 724 723 721 725 728 726 731 736 735 737 743 743 741 742 746 744 742 746 749 748 750 753 756 759 761 765 767 767 771 775 779 785 786 783 781 778 778 777 773 778 790 794 792 793 799 802 801 801 799 800 811 816 815 817 819 821 820 816 822 825 821 827 832 817 804 806 806 803 804 808 809 807 808 813 815 814 815 817 819 821 823 824
710 715 718 720 723 725 727 726 723 723 723 721 727 733 733 736 740 742 742 743 743 744 744 747 746 745 748 751 755 759 760 765 768 768 771 777 782 787 788 785 784 783 782 779 775 780 790 794 792 788 787 787 787 793 797 798 802 804 806 814 819 821 821 819 819 813 811 824 827 810 804 809 805 799 800 803 805 806 806 807 809 810 814 817 820 823 824 824
715 719 721 718 719 721 723 724 722 721 722 721 725 731 733 735 737 738 741 744 744 742 743 746 746 744 744 746 749 757 763 766 769 771 774 778 781 784 785 785 786 785 783 782 780 780 785 790 791 790 790 790 793 798 798 796 798 800 805 812 817 820 820 818 812 805 807 814 808 799 804 807 799 796 796 796 799 801 801 803 806 809 813 817 820 822 822 824
720 723 725 722 721 721 719 721 721 720 722 723 728 731 731 731 734 736 738 742 744 743 740 741 746 746 746 745 745 752 760 761 764 771 774 775 777 779 780 782 785 786 784 782 783 782 782 786 790 792 792 794 801 804 801 798 799 803 806 809 813 816 814 810 806 801 803 803 798 801 807 802 794 793 791 793 798 801 802 806 808 810 813 817 818 818 819 822
721 723 724 724 725 724 721 721 721 722 725 725 727 730 729 729 732 735 738 738 739 742 741 739 745 749 749 748 747 750 752 750 753 761 767 771 773 774 774 773 778 786 785 782 784 785 783 787 792 794 795 798 805 809 807 804 801 803 808 810 811 813 812 808 803 800 804 804 802 808 811 803 795 791 792 798 803 804 805 807 808 809 811 814 815 816 818 821
722 723 724 723 726 728 725 722 721 723 727 726 724 728 729 728 730 733 738 739 737 738 741 741 745 751 751 750 749 750 752 750 749 752 756 760 762 764 766 765 770 780 783 782 783 783 785 792 796 795 795 798 807 813 811 809 805 806 811 812 811 810 807 803 799 798 802 803 806 813 811 799 792 791 795 800 803 803 802 803 806 808 809 812 813 815 818 821
723 724 724 723 726 730 728 724 723 724 725 723 722 726 727 727 729 730 735 741 741 738 740 741 743 747 751 752 751 751 754 755 754 756 758 759 760 762 765 765 765 770 776 780 783 783 785 788 793 794 790 799 821 822 810 808 811 808 801 798 801 801 797 797 799 798 797 797 803 807 797 786 786 788 791 796 801 801 798 797 801 803 806 810 811 813 817 820